Simultaneous Nadir Overpasses (SNOs) Predictions

Prediction of SNOs between METOP-B and TERRA Satellite Orbit:

Table of predicted SNOs for the next 14.0 days since TLE Epoch: 8/12/2017
Index Date (METOP-B) Time (METOP-B) Lat,Lon (METOP-B) SZA (METOP-B ) Date (TERRA) Time (TERRA) Lat,Lon (TERRA) SZA (TERRA ) Distance(km) Time Diff (sec)
1 08/13/2017 12:38:47 -81.34,-141.90 110.39 08/13/2017 12:39:39 -81.34,-142.02 110.38 2.05 52
2 08/13/2017 13:29:27 81.34, 25.66 69.65 08/13/2017 13:29:05 81.34, 25.76 69.66 1.74 22
3 08/16/2017 08:13:07 -81.34, -75.43 109.49 08/16/2017 08:13:55 -81.34, -75.48 109.48 0.82 48
4 08/16/2017 09:03:46 81.35, 92.48 70.59 08/16/2017 09:03:21 81.35, 92.29 70.56 3.26 25
5 08/19/2017 03:47:26 -81.34, -8.96 108.57 08/19/2017 03:48:10 -81.35, -8.91 108.54 1.28 44
6 08/19/2017 04:38:06 81.34, 158.51 71.46 08/19/2017 04:37:37 81.34, 158.46 71.44 1.32 29
7 08/21/2017 23:21:46 -81.34, 57.49 107.62 08/21/2017 23:22:27 -81.34, 57.30 107.63 3.08 41
8 08/22/2017 00:12:26 81.34,-135.08 72.41 08/22/2017 00:11:53 81.34,-134.97 72.40 1.86 33
9 08/24/2017 18:56:06 -81.34, 123.92 106.65 08/24/2017 18:56:43 -81.35, 123.92 106.63 0.53 37




NCC Satellite Simultaneous Nadir Overpasses (SNOs) Prediction Service
